Location: Castelbiague
(43.0361°N, 0.9246°E)
Time: 08:57:32
(UTC+00:00)

HODOYOSHI 3 - Visible Passes

Search period start: 23 September 2023 00:00
Search period end: 03 October 2023 00:00
Orbit: 603 x 655 km, 97.6° (Epoch: 22 September)

Date Brightness Start Highest point End Pass type
(mag) Time Alt. Az. Time Alt. Az. Time Alt. Az.
23 Sep ? 04:40:28 10° E 04:42:19 13° ENE 04:44:09 10° NE visible
23 Sep ? 19:37:40 10° N 19:41:39 34° WNW 19:45:40 10° SW visible
24 Sep ? 04:59:11 10° ESE 05:02:15 20° ENE 05:05:20 10° NNE visible
24 Sep ? 18:21:29 10° NNE 18:25:34 36° E 18:29:41 10° SSE visible
24 Sep ? 19:58:17 10° NNW 20:01:41 22° WNW 20:05:07 10° WSW visible
25 Sep ? 18:41:25 10° NNE 18:45:48 61° E 18:50:13 10° S visible
25 Sep ? 20:19:14 10° NNW 20:21:39 15° WNW 20:24:03 10° W visible
26 Sep ? 19:01:32 10° N 19:05:59 82° WNW 19:10:26 10° SSW visible
27 Sep ? 19:21:49 10° N 19:26:06 49° WNW 19:30:24 10° SSW visible
28 Sep ? 04:44:28 10° E 04:46:45 14° ENE 04:49:03 10° NNE visible
28 Sep ? 18:06:06 10° NE 18:09:50 26° E 18:13:35 10° SSE visible
28 Sep ? 19:42:15 10° N 19:46:09 31° WNW 19:50:04 10° SW visible
29 Sep ? 05:03:24 10° ESE 05:06:41 22° ENE 05:10:01 10° NNE visible
29 Sep ? 18:25:53 10° NNE 18:30:06 42° E 18:34:21 10° S visible
29 Sep ? 20:02:54 10° NNW 20:06:09 20° WNW 20:09:24 10° WSW visible
30 Sep ? 18:45:52 10° NNE 18:50:19 70° ESE 18:54:47 10° S visible
30 Sep ? 20:24:01 10° NW 20:26:05 13° WNW 20:28:09 10° W visible
01 Oct ? 19:06:00 10° N 19:10:27 72° WNW 19:14:56 10° SSW visible
02 Oct ? 04:30:44 10° ENE 04:31:14 10° ENE 04:31:44 10° NE visible
02 Oct ? 19:26:18 10° N 19:30:33 44° WNW 19:34:48 10° SW visible
